OpenBCM V1.13 (Linux)

Packet Radio Mailbox

DB0FHN

[JN59NK Nuernberg]

 Login: GUEST





  
UA9FBV > KEPS     23.08.04 04:11l 277 Lines 7264 Bytes #999 (0) @ AMSAT
BID : ORB04235.D
Read: GUEST
Subj: Orbital Elements  04235.MICROS
Path: DB0FHN<DB0RGB<OK0PPL<DB0RES<ER3KAZ<UA9FBV
Sent: 040823/0208Z @:UA9FBV.PRM.RUS.AS #:5879 [Perm] GATEWAY $:ORB04235.D
From: UA9FBV@UA9FBV.PRM.RUS.AS
To  : KEPS@AMSAT


HR AMSAT ORBITAL ELEMENTS FOR THE MICROSATS
FROM WA5QGD FORT WORTH,TX August 22, 2004
SEND SUBSCRIBE/UNSUBSCRIBE TO majordomo@amsat.org ONLY
BID: ORB04235.D
TO ALL RADIO AMATEURS BT

Satellite: UO-14
Catalog number: 20437
Epoch time:      04235.01105287
Element set:     573
Inclination:       98.2076 deg
RA of node:       255.3001 deg
Eccentricity:    0.0011125
Arg of perigee:    10.0788 deg
Mean anomaly:     350.0624 deg
Mean motion:   14.31367500 rev/day
Decay rate:        5.6e-07 rev/day^2
Epoch rev:           76123
Checksum:              247

Satellite: AO-16
Catalog number: 20439
Epoch time:      04234.72070471
Element set:     260
Inclination:       98.2414 deg
RA of node:       269.5509 deg
Eccentricity:    0.0011663
Arg of perigee:    18.2354 deg
Mean anomaly:     341.9248 deg
Mean motion:   14.31624812 rev/day
Decay rate:        5.7e-07 rev/day^2
Epoch rev:           76124
Checksum:              284

Satellite: WO-18
Catalog number: 20441
Epoch time:      04235.16032755
Element set:     446
Inclination:       98.2564 deg
RA of node:       273.9778 deg
Eccentricity:    0.0012355
Arg of perigee:    17.1003 deg
Mean anomaly:     343.0602 deg
Mean motion:   14.31700180 rev/day
Decay rate:        1.9e-07 rev/day^2
Epoch rev:           76136
Checksum:              269

Satellite: LO-19
Catalog number: 20442
Epoch time:      04234.72505884
Element set:     212
Inclination:       98.2671 deg
RA of node:       277.5884 deg
Eccentricity:    0.0012585
Arg of perigee:    16.9904 deg
Mean anomaly:     343.1696 deg
Mean motion:   14.31871430 rev/day
Decay rate:        5.7e-07 rev/day^2
Epoch rev:           76136
Checksum:              313

Satellite: UO-22
Catalog number: 21575
Epoch time:      04235.02638983
Element set:     184
Inclination:       98.1975 deg
RA of node:       206.3937 deg
Eccentricity:    0.0006315
Arg of perigee:   272.0148 deg
Mean anomaly:      88.0341 deg
Mean motion:   14.39407772 rev/day
Decay rate:       1.17e-06 rev/day^2
Epoch rev:           68746
Checksum:              316

Satellite: KO-23
Catalog number: 22077
Epoch time:      04232.88961450
Element set:    0309
Inclination:      066.0812 deg
RA of node:       057.4402 deg
Eccentricity:    0.0007423
Arg of perigee:   327.3997 deg
Mean anomaly:     032.6562 deg
Mean motion:   12.86424910 rev/day
Decay rate:       -3.7e-07 rev/day^2
Epoch rev:           56483
Checksum:              297

Satellite: AO-27
Catalog number: 22825
Epoch time:      04235.02604948
Element set:     923
Inclination:       98.2435 deg
RA of node:       240.5594 deg
Eccentricity:    0.0009537
Arg of perigee:    72.4669 deg
Mean anomaly:     287.7554 deg
Mean motion:   14.29080666 rev/day
Decay rate:        2.9e-07 rev/day^2
Epoch rev:           56849
Checksum:              341

Satellite: IO-26
Catalog number: 22826
Epoch time:      04235.87761864
Element set:     609
Inclination:       98.2412 deg
RA of node:       242.6416 deg
Eccentricity:    0.0010097
Arg of perigee:    66.0268 deg
Mean anomaly:     294.1967 deg
Mean motion:   14.29317210 rev/day
Decay rate:        3.8e-07 rev/day^2
Epoch rev:           56867
Checksum:              322

Satellite: KO-25
Catalog number: 22828
Epoch time:      04235.03099943
Element set:     858
Inclination:       98.2342 deg
RA of node:       242.0808 deg
Eccentricity:    0.0010853
Arg of perigee:    49.2759 deg
Mean anomaly:     310.9357 deg
Mean motion:   14.29637775 rev/day
Decay rate:        1.7e-07 rev/day^2
Epoch rev:           53677
Checksum:              332

Satellite: TO-31
Catalog number: 25396
Epoch time:      04234.51788956
Element set:      61
Inclination:       98.5713 deg
RA of node:       304.1600 deg
Eccentricity:    0.0002220
Arg of perigee:   359.6321 deg
Mean anomaly:       0.4856 deg
Mean motion:   14.23630140 rev/day
Decay rate:       -4.3e-07 rev/day^2
Epoch rev:           31777
Checksum:              271

Satellite: GO-32
Catalog number: 25397
Epoch time:      04235.81455540
Element set:     543
Inclination:       98.5612 deg
RA of node:       303.4827 deg
Eccentricity:    0.0001043
Arg of perigee:    48.7666 deg
Mean anomaly:     311.3630 deg
Mean motion:   14.23049151 rev/day
Decay rate:        1.4e-07 rev/day^2
Epoch rev:           31789
Checksum:              283

Satellite: UO-36
Catalog number: 25693
Epoch time:      04235.83411314
Element set:     378
Inclination:       64.5589 deg
RA of node:       119.8935 deg
Eccentricity:    0.0047602
Arg of perigee:   250.7365 deg
Mean anomaly:     108.8587 deg
Mean motion:   14.78373300 rev/day
Decay rate:       1.19e-06 rev/day^2
Epoch rev:           28771
Checksum:              330

Satellite: SO-41
Catalog number: 26545
Epoch time:      04235.57836914
Element set:     857
Inclination:       64.5578 deg
RA of node:       137.1377 deg
Eccentricity:    0.0015657
Arg of perigee:     3.8206 deg
Mean anomaly:     356.3039 deg
Mean motion:   14.79836204 rev/day
Decay rate:       4.65e-06 rev/day^2
Epoch rev:           21073
Checksum:              322

Satellite: MO-46
Catalog number: 26548
Epoch time:      04235.84115037
Element set:     957
Inclination:       64.5573 deg
RA of node:       122.6622 deg
Eccentricity:    0.0016072
Arg of perigee:   340.8239 deg
Mean anomaly:      19.2244 deg
Mean motion:   14.82379483 rev/day
Decay rate:       4.61e-06 rev/day^2
Epoch rev:           21105
Checksum:              296

Satellite: SO-42
Catalog number: 26549
Epoch time:      04234.19358993
Element set:     944
Inclination:       64.5521 deg
RA of node:       148.3991 deg
Eccentricity:    0.0015561
Arg of perigee:    23.9504 deg
Mean anomaly:     336.2321 deg
Mean motion:   14.78728006 rev/day
Decay rate:       3.24e-06 rev/day^2
Epoch rev:           21039
Checksum:              305

Satellite: NO-44
Catalog number: 26931
Epoch time:      04235.81602637
Element set:     838
Inclination:       67.0521 deg
RA of node:       276.2179 deg
Eccentricity:    0.0006551
Arg of perigee:   270.8213 deg
Mean anomaly:      89.2129 deg
Mean motion:   14.29316199 rev/day
Decay rate:       -3.4e-07 rev/day^2
Epoch rev:           15112
Checksum:              295

Satellite: AO-49
Catalog number: 27605
Epoch time:      04235.47217425
Element set:     517
Inclination:       64.5601 deg
RA of node:       323.4652 deg
Eccentricity:    0.0081151
Arg of perigee:   298.5183 deg
Mean anomaly:      60.7743 deg
Mean motion:   14.71913865 rev/day
Decay rate:       1.60e-06 rev/day^2
Epoch rev:            8988
Checksum:              313

Satellite: SO-50
Catalog number: 27607
Epoch time:      04235.68986012
Element set:     498
Inclination:       64.5604 deg
RA of node:       326.7642 deg
Eccentricity:    0.0082357
Arg of perigee:   297.5351 deg
Mean anomaly:      61.7401 deg
Mean motion:   14.70699782 rev/day
Decay rate:       2.98e-06 rev/day^2
Epoch rev:            8983
Checksum:              343

Satellite: AO-51
Catalog number: 28375
Epoch time:      04235.15351240
Element set:      47
Inclination:       98.2550 deg
RA of node:       302.8933 deg
Eccentricity:    0.0085151
Arg of perigee:    54.1321 deg
Mean anomaly:     306.7735 deg
Mean motion:   14.40383959 rev/day
Decay rate:       1.20e-06 rev/day^2
Epoch rev:             756
Checksum:              278



Read previous mail | Read next mail


 15.06.2026 00:08:31lGo back Go up